Track STARLINK-4288 now! 10-day predictions STARLINK-4288 is classified as:
1 53005U 22076V 22224.83335648 .00036075 00000-0 26002-3 0 9996 2 53005 53.2183 200.0117 0002559 19.7718 237.2809 15.73228098 6217